Date String (YYYY-MM-DD hh:mm:ss) UTC,Instrument flags,absolute air pressure of the measurement (hPa),sample flow rate (lpm),inlet stack bypass flow (lpm),air temperature of the measurement (°C),ambient temperature measured by the external sensor (°C),aerosol sample conditioner tube jacket temperature (°C),OPC LED temperature (°C),internal box temperature (°C),relative humidity of the measurement (%),span deviation,mass concentration of particles derived from Lorenz-Mie calculation of OPC scattering (μg/m³),mass concentration of particles derived from Lorenz-Mie calculation of OPC scattering (μg/m³),mass concentration of particles derived from Lorenz-Mie calculation of OPC scattering (μg/m³)
DateTimeUTC,F1_M11,P_M11,Q1_M11,Q2_M11,T1_M11,T2_M11,T3_M11,T4_M11,T5_M11,U1_M11,ZSPAN_M11,X0_M11,X2_M11,X1_M11
2024-04-01 15:00:00,SystemResetWarning,0821.6,5.00,000.00,020.4,019.8,000.0,028.8,022.2,28.2,0000.0,0002.19,0001.59,0001.41
2024-04-01 15:01:00,SystemResetWarning,0821.6,5.00,000.00,020.4,019.8,000.0,028.8,022.2,29.2,0000.0,0002.20,0001.62,0001.45
2024-04-01 15:02:00,SystemResetWarning,0821.7,5.00,000.00,020.4,019.8,000.0,028.8,022.2,28.7,0000.0,0002.23,0001.65,0001.48
2024-04-01 15:03:00,SystemResetWarning,0821.5,5.00,000.00,020.4,019.8,000.0,028.8,022.2,29.1,0000.0,0002.21,0001.70,0001.52
2024-04-01 15:04:00,SystemResetWarning,0821.5,5.01,000.00,020.4,019.8,000.0,028.8,022.2,29.8,0000.0,0002.23,0001.73,0001.56
2024-04-01 15:05:00,SystemResetWarning,0821.5,5.00,000.00,020.4,019.9,000.0,028.9,022.2,30.0,0000.0,0002.51,0001.76,0001.60
2024-04-01 15:06:00,SystemResetWarning,0821.8,4.99,000.00,020.4,019.9,000.0,028.9,022.2,29.7,0000.0,0002.43,0001.79,0001.63
2024-04-01 15:07:00,SystemResetWarning,0821.8,4.99,000.00,020.4,019.9,000.0,028.9,022.2,30.0,0000.0,0002.49,0001.82,0001.65
2024-04-01 15:08:00,SystemResetWarning,0821.4,5.00,000.00,020.4,019.9,000.0,028.9,022.2,30.1,0000.0,0002.55,0001.87,0001.70
2024-04-01 15:09:00,SystemResetWarning,0821.4,5.00,000.00,020.5,019.9,000.0,028.9,022.2,30.2,0000.0,0002.62,0001.91,0001.74
2024-04-01 15:10:00,SystemResetWarning,0821.5,5.00,000.00,020.5,019.9,000.0,028.9,022.3,30.4,0000.0,0002.66,0001.92,0001.76
2024-04-01 15:11:00,SystemResetWarning,0821.3,5.00,000.00,020.5,019.9,000.0,028.9,022.3,29.9,0000.0,0002.71,0001.95,0001.79
2024-04-01 15:12:00,SystemResetWarning,0821.3,5.01,000.00,020.5,019.9,000.0,028.9,022.3,29.8,0000.0,0002.79,0002.01,0001.83
2024-04-01 15:13:00,SystemResetWarning,0821.4,5.01,000.00,020.5,019.9,000.0,028.9,022.3,30.0,0000.0,0002.93,0002.07,0001.86
2024-04-01 15:14:00,SystemResetWarning,0821.5,5.00,000.00,020.5,019.9,000.0,028.9,022.3,29.8,0000.0,0003.04,0002.12,0001.90
2024-04-01 15:15:00,SystemResetWarning,0821.3,4.99,000.00,020.5,019.9,000.0,028.9,022.3,29.7,0000.0,0003.09,0002.15,0001.92
2024-04-01 15:16:00,SystemResetWarning,0821.3,4.99,000.00,020.5,020.0,000.0,028.9,022.3,29.8,0000.0,0002.82,0002.17,0001.95
2024-04-01 15:17:00,SystemResetWarning,0821.3,5.01,000.00,020.5,020.0,000.0,028.9,022.3,29.8,0000.0,0002.87,0002.22,0002.00
2024-04-01 15:18:00,SystemResetWarning,0821.3,5.01,000.00,020.5,020.0,000.0,028.9,022.3,28.9,0000.0,0002.96,0002.27,0002.04
2024-04-01 15:19:00,SystemResetWarning,0821.3,5.00,000.00,020.5,020.0,000.0,028.9,022.3,28.6,0000.0,0002.92,0002.26,0002.05
2024-04-01 15:20:00,SystemResetWarning,0821.3,4.99,000.00,020.5,020.0,000.0,029.0,022.3,28.5,0000.0,0002.91,0002.28,0002.03
2024-04-01 15:21:00,SystemResetWarning,0821.3,5.00,000.00,020.5,020.0,000.0,029.0,022.3,29.0,0000.0,0002.95,0002.32,0002.06
2024-04-01 15:22:00,SystemResetWarning,0821.3,5.00,000.00,020.6,020.0,000.0,029.0,022.4,28.8,0000.0,0002.91,0002.31,0002.07
2024-04-01 15:23:00,SystemResetWarning,0821.4,4.99,000.00,020.6,020.0,000.0,029.0,022.4,29.2,0000.0,0002.89,0002.28,0002.06
2024-04-01 15:24:00,SystemResetWarning,0821.4,4.99,000.00,020.6,020.0,000.0,029.0,022.4,28.9,0000.0,0002.80,0002.26,0002.05
2024-04-01 15:25:00,SystemResetWarning,0821.3,5.00,000.00,020.6,020.0,000.0,029.0,022.4,28.8,0000.0,0002.71,0002.22,0002.03
2024-04-01 15:26:00,SystemResetWarning,0821.3,5.00,000.00,020.6,020.1,000.0,029.0,022.4,29.0,0000.0,0002.64,0002.19,0002.01
2024-04-01 15:27:00,SystemResetWarning,0821.3,5.01,000.00,020.6,020.1,000.0,029.0,022.4,28.9,0000.0,0002.67,0002.18,0001.98
2024-04-01 15:28:00,SystemResetWarning,0821.3,5.00,000.00,020.6,020.1,000.0,029.0,022.4,28.3,0000.0,0002.61,0002.16,0001.96
2024-04-01 15:29:00,SystemResetWarning,0821.3,5.00,000.00,020.6,020.1,000.0,029.0,022.4,28.2,0000.0,0002.53,0002.13,0001.95
2024-04-01 15:30:00,SystemResetWarning,0821.3,4.99,000.00,020.6,020.1,000.0,029.0,022.4,28.3,0000.0,0002.54,0002.14,0001.94
2024-04-01 15:31:00,SystemResetWarning,0821.3,5.00,000.00,020.6,020.1,000.0,029.0,022.4,28.9,0000.0,0002.48,0002.10,0001.94
2024-04-01 15:32:00,SystemResetWarning,0821.3,4.99,000.00,020.6,020.1,000.0,029.1,022.5,27.9,0000.0,0002.49,0002.06,0001.92
2024-04-01 15:33:00,SystemResetWarning,0821.3,5.00,000.00,020.6,020.1,000.0,029.1,022.5,28.2,0000.0,0002.92,0002.07,0001.89
2024-04-01 15:34:00,SystemResetWarning,0821.3,5.00,000.00,020.6,020.1,000.0,029.1,022.5,27.7,0000.0,0002.86,0002.04,0001.86
2024-04-01 15:35:00,SystemResetWarning,0821.3,5.01,000.00,020.6,020.1,000.0,029.1,022.5,27.3,0000.0,0002.86,0002.02,0001.84
2024-04-01 15:36:00,SystemResetWarning,0821.3,5.01,000.00,020.7,020.1,000.0,029.1,022.5,27.7,0000.0,0002.85,0002.00,0001.82
2024-04-01 15:37:00,SystemResetWarning,0821.3,5.00,000.00,020.7,020.1,000.0,029.1,022.5,27.1,0000.0,0002.84,0001.99,0001.81
2024-04-01 15:38:00,SystemResetWarning,0821.3,4.99,000.00,020.7,020.1,000.0,029.1,022.5,27.7,0000.0,0002.82,0001.99,0001.81
2024-04-01 15:39:00,SystemResetWarning,0821.4,4.99,000.00,020.7,020.2,000.0,029.1,022.5,28.4,0000.0,0002.76,0001.94,0001.76
2024-04-01 15:40:00,SystemResetWarning,0821.3,5.00,000.00,020.7,020.2,000.0,029.1,022.5,28.2,0000.0,0002.75,0001.91,0001.73
2024-04-01 15:41:00,SystemResetWarning,0821.3,5.00,000.00,020.7,020.2,000.0,029.1,022.5,27.1,0000.0,0002.68,0001.86,0001.69
2024-04-01 15:42:00,SystemResetWarning,0821.3,5.00,000.00,020.7,020.2,000.0,029.1,022.5,26.9,0000.0,0002.71,0001.84,0001.66
2024-04-01 15:43:00,SystemResetWarning,0821.3,5.01,000.00,020.7,020.2,000.0,029.1,022.5,26.6,0000.0,0002.55,0001.80,0001.62
2024-04-01 15:44:00,SystemResetWarning,0821.3,5.00,000.00,020.7,020.2,000.0,029.1,022.5,25.1,0000.0,0002.10,0001.74,0001.60
2024-04-01 15:45:00,SystemResetWarning,0821.3,4.99,000.00,020.7,020.2,000.0,029.1,022.6,23.8,0000.0,0002.11,0001.73,0001.57
2024-04-01 15:46:00,SystemResetWarning,0821.3,4.99,000.00,020.8,020.2,000.0,029.1,022.6,24.4,0000.0,0002.22,0001.71,0001.54
2024-04-01 15:47:00,SystemResetWarning,0821.3,5.00,000.00,020.8,020.2,000.0,029.2,022.6,24.1,0000.0,0002.16,0001.67,0001.50
2024-04-01 15:48:00,SystemResetWarning,0821.3,5.00,000.00,020.8,020.2,000.0,029.2,022.6,24.4,0000.0,0002.09,0001.62,0001.45
2024-04-01 15:49:00,SystemResetWarning,0821.3,5.00,000.00,020.8,020.2,000.0,029.2,022.6,25.8,0000.0,0001.99,0001.55,0001.41
2024-04-01 15:50:00,SystemResetWarning,0821.2,5.00,000.00,020.8,020.2,000.0,029.2,022.6,25.8,0000.0,0001.99,0001.53,0001.40
2024-04-01 15:51:00,SystemResetWarning,0821.2,5.00,000.00,020.8,020.2,000.0,029.2,022.5,26.2,0000.0,0002.37,0001.55,0001.40
2024-04-01 15:52:00,SystemResetWarning,0821.2,5.00,000.00,020.8,020.1,000.0,029.2,022.5,26.7,0000.0,0002.54,0001.53,0001.38
2024-04-01 15:53:00,SystemResetWarning,0821.2,5.00,000.00,020.8,020.1,000.0,029.2,022.5,27.8,0000.0,0002.48,0001.50,0001.36
2024-04-01 15:54:00,SystemResetWarning,0821.2,5.01,000.00,020.8,020.1,000.0,029.2,022.5,29.0,0000.0,0002.65,0001.53,0001.37
2024-04-01 15:55:00,SystemResetWarning,0821.1,5.01,000.00,020.8,020.1,000.0,029.2,022.5,28.8,0000.0,0002.82,0001.58,0001.39
2024-04-01 15:56:00,SystemResetWarning,0821.2,5.00,000.00,020.8,020.1,000.0,029.2,022.5,28.4,0000.0,0003.45,0001.63,0001.43
2024-04-01 15:57:00,SystemResetWarning,0821.2,5.00,000.00,020.7,020.1,000.0,029.2,022.5,28.9,0000.0,0003.71,0001.65,0001.46
2024-04-01 15:58:00,SystemResetWarning,0821.2,5.00,000.00,020.7,020.1,000.0,029.2,022.5,29.0,0000.0,0003.80,0001.72,0001.51
2024-04-01 15:59:00,SystemResetWarning,0821.2,4.99,000.00,020.7,020.1,000.0,029.2,022.5,29.4,0000.0,0003.90,0001.77,0001.54
